sat.trackr.live / text

‹ back to catalog

ONEWEB-0152

NORAD 48043 · 2021-025B

PAYLOAD ACTIVE UNKNOWN

§ Identity

Operator
Country
UK
Launch date
2021-03-25
Launch site
VOSTO
Launch vehicle
Mass (kg)
RCS (m²)

Purposes: comms

External: N2YO · Heavens-Above · Gunter

§ Orbital elements

Epoch: 2026-09-19T19:14:38.670144Z

Period
109.63 min
Inclination
87.8923°
Eccentricity
0.0002017
Mean motion
13.13468149 rev/d
Perigee alt
1,208.2 km
Apogee alt
1,211.3 km
Semi-major
7,587.9 km
B*
6.9442e-4
RAAN
301.4009°
Arg perigee
96.5165°
Mean anomaly
263.6194°
Rev number
26,597

§ Raw data

ONEWEB-01521 48043U 21025B   26262.80183646  .00000266  00000+0  69442-3 0  99942 48043  87.8923 301.4009 0002017  96.5165 263.6194 13.13468149265977

JSON: /api/v1/satellites/48043 · /tle

For live sub-satellite position, see the globe view (requires WebGL).

§ Visibility from observer

Set your observer location to see the next 7 days of passes ≥ 10°. The values pass through the URL so the page stays shareable.

No JS? Fill the form by hand. The geolocation button needs JavaScript.